GFSCGP_con_3kmhel_195.txt.gz
Helicity
117 121 101 93 89 82 90 87 73 65 52 32 62 90 143 90 62 48 11 41 75 86 42 34 71 67 78 73 74 73 63 39 45 50 64 72 66 104 124 126 98 82 105 125
148 122 120 139 110 92 82 81 61 57 56 34 83 33 48 60 46 66 31 63 79 84 58 49 69 78 83 70 48 35 47 40 34 74 115 142 128 127 126 137 130 115 124 143
142 147 144 139 98 91 70 79 72 59 57 71 42 17 38 63 45 69 42 56 76 85 64 68 79 77 53 4 -4 29 71 73 61 30 136 224 224 218 185 142 127 131 140 147
163 157 137 123 87 98 88 66 80 75 78 59 75 60 52 92 55 38 41 58 68 77 85 87 83 78 44 33 45 114 135 116 77 78 96 126 235 238 201 147 159 158 148 153
170 149 138 106 73 69 90 100 97 111 124 106 102 120 17 74 119 42 69 61 69 71 99 93 89 84 54 74 61 70 80 72 70 83 79 105 179 236 199 197 165 166 136 147
150 98 83 84 101 86 99 111 116 119 118 135 95 94 96 56 76 77 75 89 78 83 90 122 46 75 59 87 78 81 72 74 64 75 92 93 109 219 233 229 206 190 174 185
121 105 94 92 121 103 94 102 112 128 150 102 107 119 156 76 78 95 56 49 52 84 109 80 74 75 77 81 70 69 55 56 72 82 124 127 107 131 186 226 234 247 224 221
132 151 83 75 101 84 87 82 121 116 134 114 182 101 36 66 55 44 13 52 63 104 141 132 101 107 74 86 56 48 34 41 53 64 65 100 102 144 148 197 303 259 270 246
122 141 101 84 75 71 79 116 113 182 153 144 104 118 82 41 37 66 59 69 103 135 131 114 120 148 73 74 57 51 42 61 43 36 47 65 76 83 112 122 263 281 242 285
101 162 132 110 100 132 105 121 163 170 154 107 115 117 153 26 87 36 97 101 124 134 130 159 111 40 43 71 64 47 61 70 44 26 43 76 51 39 82 222 215 184 243 270
106 132 119 134 108 106 145 177 214 182 189 159 93 58 139 83 29 91 115 101 118 108 146 147 97 57 47 74 75 56 45 34 45 28 36 54 46 31 127 148 175 176 238 261
114 121 117 109 156 166 154 150 194 198 129 166 164 120 109 53 117 117 101 130 118 136 146 104 77 63 47 38 54 45 30 37 32 61 39 73 87 161 176 217 201 207 265 237
110 170 172 154 141 181 161 153 191 193 157 196 157 188 189 50 119 99 113 102 103 112 129 102 90 61 47 55 56 73 83 76 44 83 62 82 146 174 260 206 186 175 227 251
195 212 206 172 211 235 228 195 143 179 176 167 239 219 52 115 75 117 126 77 79 96 100 95 87 64 41 45 59 40 57 60 -6 78 69 23 60 140 139 122 142 170 216 272
181 183 170 182 165 159 156 121 106 147 181 160 146 106 113 124 79 122 146 87 71 80 72 70 70 42 29 48 54 25 65 83 4 93 79 62 77 89 97 118 164 173 227 301
193 184 187 153 108 114 104 95 104 116 109 133 138 83 118 102 89 112 125 48 68 60 69 70 67 27 17 42 35 59 75 96 -1 129 104 99 101 115 128 150 133 185 195 266
187 173 162 135 98 116 66 142 174 116 148 122 111 89 104 108 90 81 73 65 72 64 65 61 64 34 44 46 53 100 49 102 97 137 122 134 140 170 171 169 178 209 244 279
102 116 110 104 88 75 92 68 42 52 81 113 88 107 137 159 116 65 57 80 72 57 52 61 50 36 74 32 34 52 53 213 235 189 169 173 167 170 186 226 245 269 246 290
158 193 154 107 121 82 31 -21 73 105 58 61 86 72 168 121 83 55 70 67 77 63 54 69 50 68 77 65 45 24 54 122 180 165 187 199 191 196 192 216 221 235 263 258
101 120 175 208 121 64 54 49 44 50 17 116 156 136 72 29 88 116 118 33 68 53 46 43 39 50 76 62 69 75 28 51 91 105 150 157 214 269 301 314 374 267 260 239
153 167 123 109 111 65 64 38 101 70 58 66 -16 -60 -63 4 100 143 21 38 68 53 37 42 39 81 49 50 43 32 29 51 67 109 148 190 218 271 269 260 244 254 276 286
181 151 189 170 140 67 83 94 103 93 96 11 -14 -31 -65 -35 39 37 -0 30 51 51 43 52 57 55 29 19 16 33 32 -3 53 64 114 126 151 181 187 218 195 239 255 276
139 146 159 159 138 160 103 97 65 41 -19 7 42 26 2 -36 16 25 -0 17 48 56 31 50 71 56 29 -3 4 35 18 7 22 63 50 63 114 122 106 107 101 160 157 115
187 169 154 126 111 82 40 27 -23 -71 -6 42 13 4 31 7 19 24 -1 15 42 56 18 50 50 49 34 -1 3 22 42 36 29 54 62 64 84 118 147 148 107 31 -2 -35
145 138 104 14 16 -2 -15 23 48 59 43 68 2 -6 60 36 26 10 19 14 36 51 15 38 55 23 26 39 41 32 22 60 106 78 72 75 55 46 47 47 7 -19 -2 -53
168 177 210 184 159 122 63 69 79 12 24 46 -47 71 90 70 43 18 35 15 36 28 29 21 42 44 41 34 45 42 46 57 97 115 77 97 93 71 61 33 38 98 31 10

GFSCGP_con_3kmhel_198.txt.gz
Helicity
107 84 67 89 113 118 99 78 66 59 61 47 42 27 68 48 60 55 61 70 48 48 57 47 53 67 79 78 70 63 43 41 41 52 77 96 94 81 81 112 93 91 78 76
94 85 126 157 139 115 92 88 73 58 58 37 44 32 25 81 77 71 80 65 55 51 48 62 65 59 70 65 53 26 8 43 57 93 118 131 137 132 117 105 137 138 100 97
114 131 145 157 137 113 99 88 84 84 60 67 34 11 54 83 87 39 62 38 46 45 48 68 74 76 91 69 64 57 47 51 73 92 119 114 136 160 156 163 139 172 148 122
142 177 163 161 136 114 115 74 91 74 74 84 71 77 53 92 93 95 98 85 82 61 44 56 65 97 78 40 57 68 70 67 92 80 104 103 115 109 125 183 176 142 178 155
186 147 173 164 157 90 123 91 92 93 96 94 99 107 60 81 98 133 90 87 84 76 72 67 86 113 68 70 88 73 86 72 74 59 97 133 117 110 104 117 186 139 125 167
251 216 188 185 136 125 86 79 86 98 92 112 121 98 64 70 162 79 143 112 97 47 30 49 83 80 89 100 110 95 94 79 55 42 86 82 74 81 95 98 190 189 154 182
205 199 146 124 135 95 73 78 97 93 107 129 132 98 68 126 76 96 80 87 35 27 36 39 53 77 92 108 111 99 48 29 38 55 56 51 56 56 66 80 130 208 176 212
163 178 97 87 116 114 94 91 120 118 102 123 163 106 120 104 126 -3 47 22 27 58 35 44 48 66 76 62 57 52 31 40 47 64 48 53 75 125 114 83 118 188 151 187
136 154 114 110 110 106 101 102 111 129 125 100 95 128 80 110 64 106 71 19 75 52 23 32 47 54 71 47 42 54 30 24 63 88 70 56 38 56 96 67 110 158 124 165
110 146 123 117 109 129 106 111 110 89 80 48 97 129 75 77 87 128 -7 63 63 24 26 25 59 51 80 49 28 39 39 35 37 55 62 65 56 61 83 70 97 117 92 161
109 135 130 122 90 96 148 124 147 149 162 156 151 114 115 89 86 -45 29 52 40 27 26 33 77 70 73 71 35 26 25 25 31 53 70 53 57 97 59 52 58 88 88 166
143 132 110 115 129 146 148 141 105 155 152 239 226 175 100 71 37 12 41 69 36 32 33 41 76 64 82 76 36 16 27 52 48 39 80 48 29 67 20 32 66 120 127 137
129 110 84 107 133 142 123 108 135 187 213 171 179 174 110 27 27 32 60 57 25 24 23 44 58 82 80 51 33 22 32 35 69 91 63 41 50 113 147 129 111 153 174 198
120 145 154 151 196 165 143 166 133 145 228 160 101 26 27 16 20 34 54 41 15 22 4 80 66 68 52 30 49 2 13 31 62 56 58 38 39 77 163 206 258 192 190 183
149 107 110 103 122 142 139 127 123 169 167 112 27 2 20 28 34 25 24 32 36 21 24 75 70 78 48 35 43 -1 -5 35 21 8 59 46 32 59 104 146 163 161 185 174
150 121 122 114 95 92 104 101 102 83 62 16 16 6 70 90 46 40 41 37 32 25 54 52 64 91 57 47 41 12 26 75 11 56 65 44 51 72 95 69 131 143 194 235
112 103 91 75 123 118 92 78 53 31 16 12 -3 69 115 97 82 79 31 24 45 25 53 38 73 89 70 53 35 9 56 36 60 75 109 93 94 97 107 96 112 131 152 186
112 121 143 132 103 12 78 92 62 42 43 44 38 35 110 88 78 12 -9 37 66 28 55 62 80 75 72 64 46 24 48 58 103 121 86 91 100 123 111 117 132 160 180 201
74 87 110 99 52 66 35 61 80 19 21 42 55 132 115 51 51 36 28 54 36 33 60 66 69 55 62 61 38 18 49 38 40 73 81 80 104 115 142 139 155 209 245 247
91 100 117 121 104 72 80 92 92 83 68 134 182 155 72 78 65 40 70 27 25 43 53 54 62 64 55 35 30 29 -3 18 17 70 84 128 128 131 158 154 165 204 239 248
125 105 88 76 88 73 15 37 39 80 101 136 134 112 36 33 -1 16 13 7 34 46 46 57 75 72 40 33 23 20 16 12 21 70 122 121 134 184 222 254 248 237 263 285
103 116 132 119 115 60 33 98 117 176 161 122 70 20 50 41 24 26 27 10 31 41 55 58 82 72 45 25 31 39 36 11 22 54 125 153 146 156 182 223 217 217 228 216
134 148 129 151 123 187 98 144 116 81 90 19 14 25 -15 18 11 54 31 15 26 54 60 57 77 74 40 24 34 59 47 47 38 51 63 88 103 122 138 146 135 168 164 189
209 166 143 119 97 91 110 97 44 16 40 30 11 18 -11 28 11 59 25 17 27 62 67 46 72 70 45 39 19 42 38 36 43 42 34 36 59 70 108 122 130 166 175 160
122 121 112 51 64 22 -0 20 25 4 -6 -22 22 38 24 18 25 62 34 19 26 53 70 40 47 58 45 49 40 28 33 45 57 60 53 60 61 74 75 108 95 80 75 41
105 113 155 111 58 59 34 23 26 25 19 30 44 53 66 35 34 46 66 15 27 48 57 32 38 65 58 65 60 39 31 28 61 85 76 52 67 58 62 98 136 129 46 -13

GFSCGP_con_3kmhel_201.txt.gz
Helicity
77 84 86 34 59 81 80 72 63 77 79 50 45 26 59 54 70 92 73 100 79 85 72 54 51 62 67 69 83 89 73 54 69 77 82 100 107 117 115 121 109 132 119 87
78 53 94 175 117 92 83 77 55 81 65 53 54 34 40 90 119 110 111 127 116 95 70 60 56 65 62 72 91 96 70 61 89 97 102 110 131 181 208 195 123 122 146 164
71 124 115 108 119 105 87 78 97 97 65 48 44 24 81 98 131 107 114 120 131 130 104 98 75 78 85 106 119 96 72 73 97 97 94 99 107 119 136 187 198 156 124 165
84 135 89 102 108 126 122 139 123 102 93 95 68 84 76 129 149 140 152 185 193 151 146 117 78 76 86 121 114 106 118 130 123 118 108 111 107 109 116 108 127 145 135 141
150 96 120 139 151 143 192 145 139 114 106 100 83 111 130 123 140 185 216 229 192 155 98 57 62 65 75 105 145 146 149 144 118 110 116 130 110 90 101 130 108 111 155 145
221 193 179 242 203 214 148 132 104 90 102 124 113 108 72 131 120 304 214 152 203 90 43 48 66 61 68 97 105 129 99 101 75 45 50 50 68 95 118 114 111 105 129 185
128 155 207 177 205 169 138 136 155 143 146 184 133 123 57 211 347 259 225 215 150 47 56 59 55 46 58 49 74 98 75 54 50 43 53 64 65 73 88 105 114 78 99 192
92 120 126 137 208 187 92 159 197 175 166 170 128 95 147 286 232 239 241 215 84 54 48 54 41 51 67 53 76 75 104 82 46 34 53 74 72 95 111 110 121 120 88 171
125 161 108 142 158 192 131 129 145 161 135 149 109 101 94 143 268 351 214 79 42 32 62 45 38 54 78 56 80 91 140 100 62 40 55 57 58 61 83 98 115 102 69 157
152 114 94 101 129 131 150 123 151 124 150 122 94 56 101 147 296 182 97 77 -17 52 53 26 33 55 54 72 109 138 166 101 48 39 59 61 53 58 68 102 98 63 69 157
137 136 84 105 85 90 122 121 130 164 160 157 115 140 129 215 156 152 106 -8 35 36 20 21 33 61 58 90 111 117 86 50 42 44 63 71 64 61 57 110 94 49 76 186
118 157 121 98 92 124 120 92 81 148 113 141 167 186 143 170 83 112 31 15 31 30 18 27 66 59 57 107 122 88 57 22 9 51 56 68 51 33 30 108 44 45 65 175
137 102 121 98 67 87 118 100 121 123 144 146 140 145 151 128 94 57 14 22 26 17 17 22 55 32 60 101 104 74 14 -7 12 59 68 66 39 36 83 47 37 43 76 132
143 160 135 148 162 184 120 108 100 79 159 114 79 76 94 95 99 25 12 21 19 27 19 33 53 21 69 111 97 37 15 -13 15 64 41 27 45 39 49 109 98 123 91 183
182 153 108 114 129 117 100 113 89 81 78 109 83 80 45 70 52 45 34 24 19 5 21 35 58 34 76 89 63 54 29 38 62 46 -0 45 54 64 79 121 190 228 247 265
149 135 160 141 82 63 59 83 72 67 70 90 27 -33 32 142 123 82 50 26 21 6 22 47 52 35 67 60 58 33 29 73 61 20 25 52 58 52 80 106 153 198 154 209
144 145 127 88 117 148 110 36 42 27 56 86 67 45 171 184 84 66 47 21 20 -2 24 50 46 50 66 52 57 36 57 29 75 32 27 60 44 62 54 49 86 92 108 137
136 114 157 130 109 44 101 146 118 96 79 59 62 98 148 120 47 50 25 24 3 -7 24 57 50 67 67 52 52 57 61 27 48 36 7 41 51 67 72 85 92 129 122 161
71 96 146 154 98 96 128 106 79 55 51 70 51 118 150 158 52 88 75 8 -9 5 23 72 64 83 66 49 50 50 28 23 32 59 18 16 37 72 84 99 97 125 187 178
88 91 113 134 114 78 159 109 121 107 61 203 237 206 183 96 76 63 54 2 -10 6 52 66 70 86 70 53 32 41 40 29 46 56 37 25 61 76 113 125 154 156 227 260
160 151 102 99 102 94 91 80 101 76 139 131 161 162 122 74 50 25 26 17 -9 2 51 69 78 91 58 44 37 48 36 29 29 57 97 94 76 92 102 119 147 188 196 204
124 123 127 120 99 90 108 126 100 173 161 165 145 122 96 38 21 9 23 12 -18 -1 56 82 79 88 56 38 47 48 40 28 30 53 72 89 104 97 107 173 159 165 176 187
115 113 121 139 143 190 111 147 117 124 183 173 138 70 10 -31 1 -1 -20 7 5 3 59 89 77 82 64 41 37 49 43 27 13 29 62 99 129 133 120 141 161 168 160 151
116 136 132 130 131 142 149 153 110 65 75 97 34 27 15 -14 -2 -11 -3 22 11 7 50 85 80 70 58 55 38 31 41 34 22 4 12 55 96 96 89 57 57 87 99 119
141 133 102 77 94 103 113 81 33 27 32 65 24 -43 -70 -20 -6 1 1 33 26 12 49 83 73 60 61 60 50 29 30 38 33 35 32 28 42 70 92 97 87 130 153 89
81 55 82 79 54 62 69 53 56 37 -0 -25 -33 -41 15 46 15 12 7 31 36 15 43 71 68 66 71 79 62 49 36 38 47 53 57 54 80 63 72 92 110 95 88 93

GFSCGP_con_3kmhel_204.txt.gz
Helicity
115 126 95 57 52 61 74 110 112 101 69 44 26 33 29 29 100 116 87 164 136 130 115 104 91 76 70 62 77 77 89 75 86 88 104 114 125 117 123 134 107 112 158 186
108 101 88 137 146 99 81 94 85 122 81 48 59 41 56 79 100 103 112 220 208 127 116 107 80 64 64 55 80 113 86 87 88 120 137 141 136 117 117 113 169 180 150 192
95 109 130 119 121 98 79 79 93 121 62 50 62 46 109 105 125 153 254 252 164 197 212 185 112 81 82 71 91 90 79 84 103 119 148 153 143 133 117 111 121 194 155 138
69 140 87 91 89 103 98 152 182 123 101 82 82 76 79 99 139 149 158 217 307 251 214 128 99 87 68 63 85 87 95 92 107 118 144 124 117 96 99 104 110 122 144 160
107 92 92 109 120 129 166 195 191 169 140 123 99 129 87 194 140 162 225 334 282 236 112 61 53 62 65 76 76 61 84 101 107 115 119 127 99 98 87 73 74 90 107 179
127 129 126 163 201 237 198 169 157 123 117 121 93 147 121 153 147 256 258 368 295 144 108 72 49 59 48 55 71 69 74 94 92 114 119 124 93 96 97 94 104 81 54 85
88 79 154 190 178 206 193 188 169 150 166 134 184 168 139 197 408 433 490 359 215 121 75 31 40 57 49 45 74 62 92 91 96 125 119 112 100 98 105 112 113 102 113 77
54 79 68 106 175 168 156 231 211 137 140 132 192 156 163 266 275 363 386 313 180 133 41 24 43 48 37 49 47 62 87 98 111 168 142 104 91 104 97 117 151 135 102 94
63 62 110 111 167 213 198 199 177 211 200 207 156 139 207 166 255 352 374 230 148 114 1 -0 34 14 29 33 43 72 81 85 110 117 122 103 77 75 93 97 110 116 116 117
146 85 57 90 95 160 192 193 196 203 199 180 118 105 109 127 199 252 247 54 51 -29 5 50 -0 38 18 31 50 89 101 87 87 57 58 63 51 59 84 72 79 97 93 115
129 112 95 76 81 103 141 152 144 156 158 154 198 149 141 203 290 270 164 38 14 -15 33 22 -8 19 28 32 66 106 126 91 62 52 46 40 56 81 105 99 78 47 86 101
93 127 104 69 100 111 121 117 102 145 132 146 148 140 143 202 100 151 72 38 -5 28 42 5 19 8 19 46 77 117 91 39 41 48 34 37 59 115 97 57 40 65 76 40
99 87 138 110 81 95 108 92 111 150 148 155 136 151 117 90 74 85 90 94 34 41 13 11 20 1 21 61 81 93 43 41 29 33 52 55 64 104 47 38 13 73 54 49
119 134 139 157 110 115 103 85 96 130 189 163 181 122 115 109 129 42 105 92 60 28 7 6 19 1 29 57 102 67 38 29 45 58 52 64 71 33 34 43 36 63 71 24
154 167 153 122 111 130 102 115 114 114 107 171 139 123 76 60 79 125 197 97 55 34 9 -11 15 3 42 63 82 54 37 45 61 58 52 47 34 20 28 41 61 122 190 148
152 129 154 129 130 132 127 123 135 164 112 133 109 50 76 106 249 301 152 78 41 14 -12 -15 11 25 48 73 70 51 55 51 60 54 16 34 23 10 16 28 41 97 137 248
112 115 108 101 86 103 121 103 94 110 122 118 49 49 154 238 286 173 91 64 18 10 -14 -16 4 36 54 74 68 53 48 35 25 12 15 29 30 39 28 48 54 70 104 162
139 146 140 134 144 104 108 125 127 110 97 95 117 114 151 267 213 84 97 40 -1 -14 -25 8 21 41 62 76 60 49 44 38 34 51 40 39 36 35 25 44 36 65 98 106
157 157 150 159 144 132 84 102 131 108 73 127 104 250 221 168 62 146 86 1 -25 -29 -29 62 42 50 78 66 48 44 47 47 54 44 27 40 26 42 41 52 51 56 94 128
112 113 169 168 133 114 126 112 91 86 97 221 297 346 277 208 121 105 51 29 -2 -8 9 80 51 70 85 56 43 48 48 56 60 35 39 48 35 35 71 51 79 91 89 126
167 168 139 121 136 144 132 99 92 68 92 177 223 207 183 140 76 51 46 16 -7 -9 7 88 67 78 83 54 51 55 54 48 28 33 51 59 54 53 43 67 88 105 115 105
167 145 139 131 143 100 177 126 104 150 276 223 169 124 87 90 72 40 23 1 -31 -36 -11 75 66 75 81 58 51 56 62 50 21 24 52 62 56 60 53 74 69 97 104 170
233 155 149 213 231 186 216 119 90 122 123 142 124 78 72 58 34 4 -25 -22 -36 -18 -19 64 68 79 75 55 46 49 52 45 36 25 59 63 82 114 93 93 67 86 89 113
259 200 241 210 125 63 83 76 89 34 2 45 115 106 42 -44 -38 -45 -41 -38 -33 -21 -11 65 81 79 72 49 53 41 44 33 41 21 30 54 65 66 81 81 67 51 47 51
129 118 117 94 83 24 17 72 46 33 -0 50 40 39 -26 -93 -82 -67 -62 -45 -19 -21 -5 69 70 77 81 66 51 45 32 31 32 28 25 16 13 26 38 50 36 33 22 13
104 97 130 122 103 98 63 7 18 2 -30 -54 -55 -71 -82 -79 -108 -84 -64 -34 -16 -3 11 50 60 76 101 89 55 47 32 27 43 32 18 24 21 23 26 44 62 57 36 32

GFSCGP_con_3kmhel_207.txt.gz
Helicity
94 125 100 57 69 112 84 58 68 78 60 52 43 42 32 42 39 63 92 146 131 101 94 100 100 87 60 42 46 65 65 51 42 11 3 27 50 81 110 109 101 92 103 123
66 78 71 81 81 78 68 65 66 84 52 54 58 32 40 51 72 95 164 177 160 114 108 112 113 70 53 57 59 66 70 57 38 24 31 62 84 98 106 110 115 91 91 109
27 68 118 126 135 116 100 84 88 91 87 65 51 45 65 127 170 222 237 243 233 169 195 172 104 73 73 67 61 70 73 43 26 20 62 87 124 134 115 99 114 136 139 127
19 68 80 89 106 117 107 124 132 154 100 56 74 47 63 83 133 198 267 316 298 274 231 168 117 82 71 62 55 55 47 32 30 38 68 98 124 123 119 107 90 77 98 138
72 78 83 87 90 101 125 174 162 153 139 108 98 77 46 159 165 202 259 286 244 238 192 158 122 77 42 47 62 58 48 33 26 50 79 123 144 136 121 112 104 98 79 80
46 85 107 111 140 133 103 172 211 190 159 121 75 128 82 158 156 213 239 269 245 225 172 132 69 43 45 64 60 38 15 9 52 58 91 107 126 118 130 118 136 128 101 102
44 53 114 137 150 186 187 193 173 159 189 103 138 177 133 152 204 272 285 274 255 214 171 115 47 18 41 62 45 2 -0 22 55 73 78 111 126 120 100 102 126 127 118 125
128 91 66 86 134 101 141 163 163 68 109 130 222 123 167 179 351 346 312 271 254 208 160 91 8 -7 44 54 1 -28 -18 25 65 71 74 95 97 106 90 93 112 118 120 138
105 42 70 71 108 134 126 179 180 215 234 195 169 215 218 144 259 271 247 229 186 127 87 31 -27 8 57 24 -23 -38 3 49 74 87 86 78 60 54 25 39 77 89 94 107
97 112 63 74 91 103 118 155 207 240 195 181 214 189 143 121 176 230 166 96 64 28 -12 -19 -28 29 28 -13 -39 -14 47 75 98 90 63 44 -10 -5 17 41 68 76 87 79
69 124 107 104 71 118 186 204 190 181 224 209 222 211 111 120 182 208 166 90 55 19 -32 -34 14 28 -15 -17 -32 12 55 72 78 53 36 48 38 29 33 67 83 79 83 80
76 100 111 68 71 71 95 97 137 225 240 207 187 190 93 105 201 190 164 76 76 41 18 58 56 20 -8 -27 -13 31 65 66 37 33 32 53 54 57 81 92 82 62 47 78
115 101 164 156 106 110 103 83 109 142 157 134 158 118 57 142 277 173 85 103 112 100 95 113 55 15 -23 -21 8 43 70 50 30 67 72 56 48 64 65 43 25 40 37 53
92 116 155 171 186 115 128 117 108 136 173 162 169 118 113 124 187 179 128 125 100 86 107 56 2 -15 -28 -7 30 51 56 55 56 80 58 46 43 35 7 26 26 27 20 36
107 108 96 72 89 114 95 106 108 105 128 131 115 99 116 90 61 51 63 131 128 118 73 7 -13 -27 -23 7 30 51 57 45 49 63 49 31 29 9 10 2 2 4 80 77
121 105 86 64 58 84 110 107 108 120 106 111 97 99 120 117 125 167 215 202 144 91 34 -3 -16 -21 -6 10 23 56 51 27 32 32 31 33 23 27 19 2 9 -8 53 124
76 89 91 67 70 92 112 132 120 123 130 143 128 120 97 164 175 216 225 152 91 47 -4 -20 -21 -8 3 24 35 58 41 33 37 40 16 39 25 17 2 -5 18 19 45 80
130 96 120 116 107 110 127 209 101 84 53 70 107 94 90 159 224 237 174 89 44 16 -16 -7 8 8 27 38 42 53 41 48 58 44 18 38 31 9 -0 3 22 27 36 83
133 140 160 156 146 126 85 80 103 96 96 119 92 149 188 252 304 235 130 84 33 -2 -7 -8 6 25 58 48 43 57 50 54 63 31 14 33 22 22 24 33 26 16 52 104
120 109 155 179 159 150 158 120 75 77 115 149 214 259 268 226 162 150 144 84 23 -7 -26 -11 14 41 67 50 53 58 53 48 42 20 18 46 24 30 47 52 32 20 54 84
194 175 116 133 155 154 197 185 112 86 89 158 180 184 180 166 159 143 130 85 22 -13 -32 -19 15 39 64 64 62 62 59 48 25 14 35 47 45 26 25 45 58 45 79 99
195 184 162 176 183 156 193 187 168 153 200 180 173 134 118 126 133 94 63 36 5 -6 -26 -7 20 40 68 68 65 57 50 45 34 6 14 39 38 30 22 57 41 43 68 75
277 335 311 281 267 252 136 198 171 190 174 133 131 118 98 76 55 32 7 2 -25 -27 -35 -20 18 47 68 68 62 58 43 51 34 8 17 38 52 90 59 68 53 44 46 50
170 137 177 192 201 180 59 77 91 99 54 52 43 58 57 15 -12 -30 -30 -27 -33 -40 -35 -21 18 43 66 70 64 66 44 43 29 19 8 10 31 48 46 47 28 21 21 21
156 160 153 112 49 21 14 -38 -72 -29 -26 7 52 45 46 17 -3 -49 -71 -60 -25 -12 -26 -14 14 36 68 97 81 62 50 38 27 24 13 -0 6 16 16 6 -14 -14 -39 -27
170 148 198 203 135 164 136 84 60 56 17 -4 -20 -11 19 -19 -56 -94 -101 -76 -36 -22 -21 3 23 30 79 110 96 59 51 31 31 17 3 -0 3 -2 5 24 43 18 2 3

GFSCGP_con_3kmhel_213.txt.gz
Helicity
85 116 104 44 44 29 -8 56 58 54 65 57 53 57 51 63 68 48 55 49 46 54 77 78 73 88 94 81 77 71 68 60 42 13 -1 0 5 16 36 52 65 83 102 119
107 76 62 44 31 21 -11 -1 71 65 69 74 74 61 55 53 73 67 78 79 90 119 116 93 94 91 88 88 95 88 79 62 37 23 25 28 31 31 46 51 62 79 98 117
114 81 63 52 39 29 1 -9 71 58 78 87 67 53 86 90 97 118 130 133 184 152 121 96 97 101 107 110 93 76 56 39 28 25 41 60 73 77 76 76 81 91 102 124
69 87 58 51 33 52 26 36 56 103 95 59 97 71 48 96 129 132 144 225 234 191 163 147 118 118 105 86 69 67 65 56 42 49 61 73 84 78 86 101 106 93 106 132
99 93 92 75 55 63 41 58 75 124 132 110 121 111 53 154 150 140 167 236 253 213 177 124 91 87 96 96 87 68 56 46 53 59 66 75 87 98 100 94 92 98 107 151
65 59 68 71 92 85 38 78 114 135 148 130 100 135 74 138 158 177 211 255 260 229 164 112 97 97 87 78 72 58 57 45 56 78 77 69 78 90 104 105 106 108 118 127
107 90 74 79 101 128 121 111 95 105 159 86 145 158 126 116 105 206 223 229 219 180 127 97 81 85 73 66 63 52 52 26 51 65 67 60 72 94 97 98 114 112 108 139
179 168 108 73 93 91 103 134 135 80 86 106 159 137 144 127 163 235 277 245 211 167 116 90 78 64 45 50 51 42 25 30 4 32 62 68 58 78 90 90 107 114 108 102
159 143 111 89 77 87 93 112 107 155 115 116 130 163 148 173 243 289 277 238 173 120 89 66 65 52 37 32 11 14 34 32 23 28 53 50 57 67 84 105 110 109 106 104
115 161 106 110 94 85 115 89 150 168 162 163 161 196 133 106 189 274 246 188 145 117 79 56 46 42 24 1 8 55 53 27 20 29 30 38 68 83 109 124 126 129 124 102
116 146 130 131 111 120 147 152 151 152 172 195 182 121 60 97 144 183 147 137 116 90 57 30 26 3 -5 12 57 61 40 19 17 29 30 47 58 91 91 101 114 112 97 88
120 151 152 108 111 88 116 115 164 199 169 155 163 120 60 22 134 128 121 114 93 59 60 20 -14 -9 12 47 71 54 19 2 6 23 27 45 61 71 88 83 58 46 42 47
112 159 178 170 178 154 153 127 119 136 135 139 156 179 66 38 116 131 135 94 80 64 40 3 -14 -10 15 46 50 42 8 -5 7 42 44 44 62 83 51 28 26 16 17 20
152 167 169 196 169 170 169 167 162 160 192 155 146 107 76 34 42 107 131 113 67 45 19 15 21 11 15 0 54 28 13 -6 15 55 55 57 70 55 31 25 17 25 40 38
173 143 144 131 126 132 108 77 84 124 127 166 109 102 101 40 74 109 114 85 55 46 66 61 26 28 12 34 6 6 -18 5 25 43 44 67 74 37 30 22 21 29 19 38
189 158 154 129 104 110 89 86 77 50 94 122 135 64 99 134 126 124 111 107 90 97 104 82 61 17 30 22 -5 -16 -23 4 27 33 42 58 67 32 24 12 9 -7 14 48
189 172 164 112 145 131 98 126 125 130 127 118 124 113 96 89 91 94 134 125 129 143 124 117 65 27 13 -2 -14 -28 -9 14 22 34 44 51 31 14 18 10 15 7 23 34
169 169 143 136 141 165 113 134 124 111 100 115 115 98 89 95 150 192 228 224 195 156 128 87 34 -1 -10 -11 -19 -16 2 14 20 36 32 31 11 20 11 15 9 15 9 26
160 197 196 185 184 137 94 118 122 126 126 139 92 95 96 154 254 246 219 200 160 139 108 62 8 -19 -21 -28 -19 -9 19 18 18 25 23 12 12 16 13 22 14 1 7 28
173 187 236 258 220 204 123 143 168 110 149 157 142 133 126 196 206 199 217 211 205 162 111 73 28 -15 -38 -40 -17 -2 20 9 18 22 28 20 9 15 4 4 18 9 16 16
223 225 154 183 223 193 192 168 149 151 170 222 182 174 129 138 127 144 154 167 143 110 102 67 22 -17 -58 -49 -25 0 18 6 24 27 26 22 15 15 4 7 8 31 28 28
186 199 247 249 274 231 261 224 226 241 272 278 281 240 206 224 168 121 116 123 108 110 79 30 15 -24 -59 -64 -35 1 8 21 28 29 33 37 35 31 27 24 21 27 38 53
221 230 280 256 285 265 183 249 194 180 182 234 254 245 202 152 163 153 124 96 69 51 46 -10 -8 -21 -47 -67 -35 -3 21 35 32 29 39 44 53 39 36 36 28 29 33 24
217 214 242 255 275 220 198 130 121 102 151 154 169 157 156 183 170 136 127 115 55 20 14 -10 -8 -12 -24 -50 -33 3 55 54 40 30 44 44 44 41 43 45 41 40 43 60
206 213 164 155 124 62 23 3 12 34 47 84 64 68 95 76 83 52 36 33 20 3 4 -11 -22 -29 -27 -41 -32 29 87 72 49 31 31 32 33 30 22 28 21 26 29 43
174 176 236 214 135 159 140 113 96 65 36 -29 -52 -22 13 42 47 35 33 33 4 -30 -18 -18 -20 -42 -27 -48 -29 48 96 85 57 39 36 28 29 28 17 23 39 28 20 20

GFSCGP_con_3kmhel_219.txt.gz
Helicity
128 175 185 151 128 146 153 127 66 9 6 10 2 -12 18 57 55 57 58 60 51 37 79 116 119 127 125 105 86 71 60 51 35 18 11 21 25 26 21 34 46 56 67 76
161 160 159 142 149 131 134 122 59 1 9 -0 -26 -37 -8 60 54 48 63 73 62 97 117 136 142 123 110 104 96 79 59 47 30 9 -2 -11 1 -4 7 23 48 70 90 98
157 163 140 147 161 175 158 147 88 46 10 21 -32 -81 -3 67 93 71 62 93 119 101 140 148 155 128 116 113 96 76 62 49 35 25 7 13 13 20 31 62 77 97 90 87
138 131 148 149 167 167 151 110 88 59 51 67 38 -20 -34 23 83 90 75 105 158 177 199 201 175 146 115 100 89 80 60 41 24 23 17 7 -3 6 33 52 63 68 87 90
168 178 175 188 179 142 141 125 142 100 80 62 101 79 -24 66 16 45 60 85 125 223 253 224 171 162 124 92 82 60 41 38 27 15 8 5 18 33 54 62 59 61 65 74
144 128 137 147 171 156 140 182 191 151 133 173 108 138 37 53 46 88 100 102 122 209 293 292 228 161 124 94 68 48 46 32 29 18 20 24 28 45 59 63 57 53 51 57
169 184 156 144 212 179 179 211 234 240 263 224 160 135 115 92 79 66 67 114 171 263 296 261 206 156 118 90 75 49 43 28 29 27 17 18 33 42 49 52 46 40 40 48
212 230 192 154 171 208 195 207 264 295 255 187 148 155 133 101 88 74 77 170 241 274 261 205 157 141 120 97 69 50 35 23 31 15 11 16 29 32 34 33 40 44 46 56
213 216 168 140 137 159 185 201 154 247 175 180 186 166 115 107 121 122 126 197 219 249 234 214 182 132 102 82 62 41 27 30 16 4 7 16 28 46 26 21 30 45 51 55
210 277 213 194 165 171 171 137 248 230 266 222 144 111 99 168 147 100 133 188 227 272 259 200 136 110 94 71 49 29 24 11 4 5 2 19 38 59 58 35 31 58 61 54
222 257 244 216 178 198 244 226 219 210 217 229 186 110 133 158 112 87 87 131 174 189 192 164 121 98 82 52 28 17 -5 -10 -6 5 10 31 55 69 82 65 48 47 48 34
176 234 266 160 175 154 193 163 206 247 207 210 217 152 153 149 121 31 23 95 153 161 151 128 101 77 51 25 6 -11 -34 -30 -22 -6 17 49 54 62 74 64 59 54 48 38
195 277 321 269 221 205 205 157 170 208 199 205 214 172 114 118 58 37 96 106 138 142 135 121 94 61 32 11 -9 -24 -11 -27 -26 -9 27 60 58 63 75 79 80 58 37 42
177 264 268 266 214 171 157 134 136 203 225 207 193 138 51 10 7 32 69 129 118 131 132 120 90 40 20 -11 -16 -12 -9 1 2 -9 27 46 54 59 59 62 59 30 28 33
217 289 191 138 124 142 158 125 138 184 184 176 139 109 56 39 38 45 96 127 140 127 127 121 91 52 10 -3 17 13 7 15 21 -8 19 43 51 54 57 56 33 19 34 27
191 231 150 168 100 104 133 102 118 123 118 113 98 82 77 23 42 66 99 133 146 142 124 103 63 36 14 22 16 -4 15 13 10 -2 9 34 48 44 56 43 18 30 23 20
192 170 187 184 94 110 141 124 139 128 171 143 110 93 85 26 29 58 105 151 192 190 148 134 108 86 87 83 36 34 -0 -0 1 -1 15 25 35 40 55 25 28 31 5 29
226 188 174 180 159 180 110 138 129 146 209 188 160 140 92 73 78 133 143 238 254 213 174 153 135 141 101 56 36 17 6 -11 -2 9 11 9 19 48 44 30 40 16 13 18
182 214 202 208 198 153 118 174 162 133 178 195 171 182 118 125 157 208 208 217 225 216 189 160 134 121 76 52 24 13 7 -11 -3 -1 -4 -2 23 46 44 45 22 8 18 17
143 141 185 217 208 176 148 160 159 131 201 198 187 239 224 162 156 145 142 158 182 179 163 150 126 96 79 49 17 10 -10 -24 -14 -17 -27 -18 15 44 38 24 11 -0 5 21
176 174 145 215 208 178 215 190 186 150 156 190 199 203 236 202 185 172 147 168 172 188 176 127 104 116 88 24 19 9 -17 -38 -23 -18 -37 -19 13 42 34 20 10 4 10 17
149 152 186 182 212 187 244 255 237 257 232 187 194 180 189 206 216 231 232 212 209 200 170 146 109 54 37 2 11 2 -12 -38 -15 -28 -31 -15 14 50 44 25 17 12 14 22
154 169 171 175 223 218 232 213 216 234 227 215 205 194 179 197 208 202 180 179 187 184 154 109 94 83 55 8 13 -13 -26 -15 -33 -28 -30 -12 25 42 43 34 29 25 24 13
134 156 181 197 206 193 206 147 156 139 144 150 159 143 135 124 138 139 145 129 126 114 103 99 72 54 46 27 4 -26 -40 -7 -41 -22 -13 -5 19 35 41 42 36 35 33 25
126 147 154 186 186 177 139 144 128 120 117 110 87 93 107 106 112 104 104 106 86 68 59 63 49 42 31 18 -0 -24 -43 -28 -41 -12 2 5 17 30 29 30 29 23 20 23
157 153 175 151 127 172 168 104 108 99 108 116 116 128 120 103 92 90 110 91 78 66 58 43 40 43 52 31 -5 -16 -30 -35 -27 -3 14 27 29 34 29 24 33 44 30 31